Погода в Нуринере

Россия / Республика Татарстан     56°32′04″N   50°27′29″E
В апреле 2022 года жителям России запретили посещать сайт meteo.paraplan.net по решению Генеральной прокуратуры. Аудитория сайта уменьшилась в 10 раз. Владельцы сайта не видят смысла в поддержке погодного сервера в таких условиях. Сайт будет закрыт в октябре.
темп.,
°C
ветер,
м/с
пор.,
м/с
влажн.,
%
обл.,
%
осадки,
мм/ч
давл.,
гПа
погр.,
м
4 октября, вт
вт400:00+11ю61450100 0.0 1022441
03:00+10ююв5125083 0.0 1022308
06:00+9ююв51348100 0.0 1023373
09:00+11ююв61247100 0.0 1024493
12:00+13ю61243100 0.0 1025626
15:00+12юв51244100 0.0 1025492
18:00+11ююв61340100 0.0 1026513
21:00+9ююв5134282 0.0 1025356
5 октября, ср
ср500:00+9ю51241100 0.0 1025408
03:00+7ю51181100 1.4 1025669
06:00+7ююв71476100 1.8 1024730
09:00+7ююв61376100 1.8 1023605
12:00+11ю7126191 0.0 1022810
15:00+11ю6116734 0.0 1021669
18:00+8ююв41167100 0.0 1021273
21:00+9ююв61260100 0.1 1019476
6 октября, чт
чт600:00+7ююв51192100 1.8 1018441
03:00+7ююв41096100 3.7 1016504
06:00+8ююв5995100 4.3 1014428
09:00+10ю5786100 4.5 1013637
12:00+9з358396 0.6 1014501
15:00+10зюз457199 0.9 1013857
18:00+7зюз4687100 1.8 1015365
21:00+7зюз4789100 2.0 1016317
7 октября, пт
пт700:00+6зюз379195 0.1 1016328
03:00+6юз3793100 0.1 1016269
06:00+6юз4895100 0.1 1015295
09:00+8зюз58828 0.1 1015516
12:00+8юз61071100 0.0 1014719
15:00+7юз71389100 0.8 1013661
18:00+8з61392100 0.2 1014590
21:00+9з61289100 0.4 1014610
8 октября, сб
сб800:00+8з7138698 0.1 1015799
03:00+9зсз71482100 0.3 1017858
06:00+8зсз714865 0.1 1019725
09:00+9зсз7107998 0.1 1021915
12:00+10з686824 0.0 1022966
15:00+11з58698 0.0 1022938
18:00+8зюз36835 0.0 1022111
21:00+7юз310925 0.0 1023183